Teterboro, NJ

10:53 PM EDT on March 23, 2017 (GMT -0400)
Teterboro

Weather History for KTEB - August, 2014

Change the Weather History Date:

Monday, August 25, 2014

  Actual Average Record
Temperature  
Mean Temperature 74 °F -  
Max Temperature 89 °F 80 °F 93 °F (1993)
Min Temperature 61 °F 62 °F 59 °F (2013)
Cooling Degree Days 9    
Growing Degree Days 24 (Base 50)    
Moisture  
Dew Point 57 °F    
Average Humidity 57    
Maximum Humidity 90    
Minimum Humidity 33    
Precipitation  
Precipitation 0.00 in - - ()
Sea Level Pressure  
Sea Level Pressure 30.13 in    
Wind  
Wind Speed 1 mph (NNE)    
Max Wind Speed 9 mph    
Max Gust Speed -    
Visibility 10 miles    
Events Fog    
Averages and records for this station are not official NWS values.
T = Trace of Precipitation, MM = Missing Value Source: NWS Daily Summary

Daily Weather History Graph

Daily Weather History Graph

Search for Another Location

Airport or City:

Trip Planner

Search our weather history database for the weather conditions in past years. The results will help you decide how hot, cold, wet, or windy it might be!

Date:

Astronomy

Aug. 25, 2014 Rise Set
Actual Time 6:16 AM EDT 7:39 PM EDT
Civil Twilight 5:47 AM EDT 8:08 PM EDT
Nautical Twilight 5:13 AM EDT 8:42 PM EDT
Astronomical Twilight 4:36 AM EDT 9:18 PM EDT
Moon 6:19 AM EDT (8/25) 7:28 PM EDT (8/25)
Length of Visible Light 14h 20m
Length of Day
13h 23m
New Moon, 0% of the Moon is Illuminated
Aug 25
New Moon
Sep 2
First Quarter
Sep 8
Full
Sep 15
Last Quarter
Sep 24
New

Hourly Weather History & Observations

Time (EDT) Temp. Heat Index Dew Point Humidity Pressure Visibility Wind Dir Wind Speed Gust Speed Precip Events Conditions
12:51 AM 66.0 °F - 59.0 °F 78% 30.15 in 10.0 mi Calm Calm - N/A   Clear
1:51 AM 64.9 °F - 59.0 °F 81% 30.14 in 10.0 mi Calm Calm - N/A   Clear
2:51 AM 63.0 °F - 57.9 °F 84% 30.14 in 10.0 mi Calm Calm - N/A   Clear
3:51 AM 63.0 °F - 57.9 °F 84% 30.14 in 10.0 mi Calm Calm - N/A   Clear
4:51 AM 61.0 °F - 57.9 °F 90% 30.14 in 10.0 mi Calm Calm - N/A Fog Shallow Fog
5:51 AM 62.1 °F - 57.9 °F 86% 30.15 in 10.0 mi Calm Calm - N/A Fog Shallow Fog
6:51 AM 63.0 °F - 57.0 °F 81% 30.17 in 10.0 mi Calm Calm - N/A Fog Shallow Fog
7:51 AM 66.9 °F - 59.0 °F 76% 30.17 in 10.0 mi Calm Calm - N/A   Clear
8:51 AM 72.0 °F - 59.0 °F 64% 30.17 in 10.0 mi North 4.6 mph - N/A   Clear
9:51 AM 77.0 °F - 59.0 °F 54% 30.17 in 10.0 mi North 4.6 mph - N/A   Clear
10:51 AM 81.0 °F 81.1 °F 57.9 °F 45% 30.17 in 10.0 mi North 4.6 mph - N/A   Clear
11:51 AM 82.9 °F 82.0 °F 55.0 °F 38% 30.16 in 10.0 mi NNE 4.6 mph - N/A   Clear
12:51 PM 84.0 °F 83.0 °F 55.9 °F 38% 30.15 in 10.0 mi Variable 4.6 mph - N/A   Clear
1:51 PM 87.8 °F 86.1 °F 55.4 °F 33% 30.14 in 10.0 mi North 3.5 mph - N/A   Clear
2:51 PM 87.1 °F 85.7 °F 55.9 °F 35% 30.12 in 10.0 mi NE 9.2 mph - N/A   Mostly Cloudy
3:51 PM 87.1 °F 85.9 °F 57.0 °F 36% 30.10 in 10.0 mi Calm Calm - N/A   Partly Cloudy
4:51 PM 87.1 °F 85.7 °F 55.9 °F 35% 30.10 in 10.0 mi Calm Calm - N/A   Partly Cloudy
5:51 PM 86.0 °F 84.7 °F 55.9 °F 36% 30.09 in 10.0 mi South 3.5 mph - N/A   Scattered Clouds
6:51 PM 84.9 °F 83.7 °F 55.9 °F 37% 30.10 in 10.0 mi South 3.5 mph - N/A   Clear
7:51 PM 82.9 °F 82.4 °F 57.0 °F 41% 30.11 in 10.0 mi Calm Calm - N/A   Clear
8:51 PM 81.0 °F 81.0 °F 57.0 °F 44% 30.11 in 10.0 mi Calm Calm - N/A   Clear
9:51 PM 78.1 °F - 57.9 °F 50% 30.11 in 10.0 mi Calm Calm - N/A   Clear
10:51 PM 75.9 °F - 59.0 °F 56% 30.11 in 10.0 mi Calm Calm - N/A   Clear
11:51 PM 75.0 °F - 60.1 °F 60% 30.12 in 10.0 mi Calm Calm - N/A   Clear